Location: Pasadena, ca
(34.1243°N, 118.1037°W)
Time: 19:56:45
(UTC-07:00)

Vanguard 1 - All Passes

Search period start: 21 October 2017 00:00
Search period end: 31 October 2017 00:00
Orbit: 650 x 3834 km, 34.3° (Epoch: 21 October)

Date Brightness Start Highest point End Pass type
(mag) Time Alt. Az. Time Alt. Az. Time Alt. Az.
21 Oct - 00:39:31 10° WSW 00:51:03 73° SSE 01:11:48 10° ENE visible
21 Oct - 03:00:29 10° W 03:16:43 89° N 03:40:47 10° E visible
21 Oct - 05:23:42 10° WNW 05:44:29 76° SSW 06:07:11 10° ESE visible
21 Oct - 07:49:40 10° WNW 08:10:23 43° SW 08:28:14 10° SSE daylight
21 Oct - 10:28:38 10° WSW 10:32:45 11° WSW 10:36:37 10° SW daylight
21 Oct - 22:42:04 10° SSW 22:50:19 38° SE 23:04:30 10° ENE visible
22 Oct - 01:00:25 10° WSW 01:12:23 81° SSE 01:33:49 10° E visible
22 Oct - 03:21:48 10° W 03:38:35 90° S 04:02:42 10° E visible
22 Oct - 05:45:12 10° WNW 06:06:06 69° SSW 06:28:16 10° SE visible
22 Oct - 08:12:06 10° W 08:31:15 34° SW 08:47:52 10° SSE daylight
22 Oct - 23:02:17 10° SW 23:10:57 49° SE 23:26:40 10° ENE visible
23 Oct - 01:21:27 10° WSW 01:33:53 87° SSE 01:55:52 10° E visible
23 Oct - 03:43:07 10° W 04:00:26 87° SSW 04:24:32 10° ESE visible
23 Oct - 06:06:46 10° WNW 06:27:32 60° SSW 06:49:05 10° SE visible
23 Oct - 08:35:10 10° W 08:52:01 26° SW 09:06:53 10° S daylight
23 Oct - 21:07:40 10° SSE 21:12:18 16° SE 21:18:27 10° E night (unlit)
23 Oct - 23:22:46 10° SW 23:31:48 61° SSE 23:48:42 10° ENE visible
24 Oct - 01:42:33 10° W 01:55:30 90° S 02:17:57 10° E visible
24 Oct - 04:04:26 10° W 04:22:13 82° SSW 04:46:11 10° ESE visible
24 Oct - 06:28:28 10° WNW 06:48:50 51° SW 07:09:34 10° SSE visible
24 Oct - 08:59:25 10° W 09:12:44 19° SW 09:24:49 10° SSW daylight
24 Oct - 21:26:37 10° S 21:32:35 24° SE 21:41:37 10° E night (unlit)
24 Oct - 23:43:29 10° WSW 23:52:50 72° SSE 00:10:41 10° ENE visible
25 Oct - 02:03:43 10° W 02:17:11 89° N 02:40:02 10° E visible
25 Oct - 04:25:46 10° WNW 04:43:55 75° SSW 05:07:37 10° ESE visible
25 Oct - 06:50:25 10° WNW 07:10:00 42° SW 07:29:41 10° SSE daylight
25 Oct - 09:26:53 10° WSW 09:33:29 12° SW 09:39:46 10° SW daylight
25 Oct - 21:46:22 10° SSW 21:52:59 34° SE 22:04:02 10° E night (unlit)
26 Oct - 00:04:20 10° WSW 00:14:04 81° SSE 00:32:41 10° E visible
26 Oct - 02:24:55 10° W 02:38:55 89° S 03:02:04 10° E visible
26 Oct - 04:47:09 10° WNW 05:05:31 67° SSW 05:28:47 10° SE visible
26 Oct - 07:12:43 10° W 07:31:04 34° SW 07:49:18 10° SSE daylight
26 Oct - 22:06:34 10° SW 22:13:34 46° SE 22:26:08 10° ENE night (unlit)
27 Oct - 00:25:18 10° WSW 00:35:27 87° S 00:54:44 10° E visible
27 Oct - 02:46:07 10° W 03:00:37 86° SSW 03:24:00 10° ESE visible
27 Oct - 05:08:36 10° WNW 05:27:00 59° SSW 05:49:39 10° SE visible
27 Oct - 07:35:39 10° W 07:52:02 26° SW 08:08:16 10° S daylight
27 Oct - 20:12:43 10° SSE 20:15:23 12° SE 20:18:31 10° ESE visible
27 Oct - 22:27:03 10° SW 22:34:21 58° SSE 22:48:03 10° ENE night (unlit)
28 Oct - 00:46:21 10° W 00:56:55 90° N 01:16:49 10° E visible
28 Oct - 03:07:19 10° W 03:22:17 80° SSW 03:45:44 10° ESE visible
28 Oct - 05:30:11 10° WNW 05:48:23 50° SW 06:10:10 10° SSE visible
28 Oct - 07:59:45 10° W 08:13:01 19° SW 08:26:06 10° SSW daylight
28 Oct - 20:31:11 10° S 20:35:42 20° SE 20:42:02 10° E visible
28 Oct - 22:47:44 10° WSW 22:55:20 70° SSE 23:09:57 10° ENE night (unlit)
29 Oct - 01:07:26 10° W 01:18:28 89° N 01:38:56 10° E visible
29 Oct - 03:28:32 10° WNW 03:43:53 73° SSW 04:07:15 10° ESE visible
29 Oct - 05:52:00 10° W 06:09:40 41° SW 06:30:15 10° SSE visible
29 Oct - 08:26:57 10° WSW 08:34:01 12° SW 08:41:03 10° SSW daylight
29 Oct - 20:50:51 10° SSW 20:56:08 30° SE 21:04:23 10° E visible
29 Oct - 23:08:34 10° WSW 23:16:28 80° SSE 23:31:50 10° E night (unlit)
30 Oct - 01:28:32 10° W 01:40:00 89° S 02:01:00 10° E visible
30 Oct - 03:49:48 10° WNW 04:05:25 65° SSW 04:28:29 10° SE visible
30 Oct - 06:14:13 10° W 06:30:54 33° SW 06:49:50 10° SSE visible
30 Oct - 21:11:01 10° SW 21:16:43 42° SE 21:26:21 10° E visible
30 Oct - 23:29:30 10° WSW 23:37:44 87° S 23:53:48 10° E visible
